COSMOS 1275 DEB, 13462

Orbit data source: Space-Track

COSMOS 1275 DEB, 13462 is space debris in LEO originally from a launch on Thu, 04 Jun 1981 UTC launched from the Plesetsk Missile And Space Complex (PKMTR). Debris objects in space refer to the collection of defunct objects orbiting the Earth. Examples of debris include non-operational satellites, rocket bodies, and fragments generated from explosions, collisions, or faulty payload assembly.

Loading next visibility...
Identifier
13462, 1981-053FJ
Orbit
LEO
Country
Flag of CISCIS
Related business
Manufacturer
Unknown
Mission
Spacecraft
Bus & Motor
Unknown
Mass
Unknown
Launch date (UTC)
1981-06-04 (45 years ago)
Launch vehicle
Unknown
Launch site
Plesetsk Missile And Space Complex (PKMTR)
Object type
Payload
Rocket body
Debris
Shape & HBR
Unknown shape, 0.1 m
Radar Cross Section
Medium (>0.1 m² and <1 m²)

Expand to show TLE details & history
Last TLE update: 2 days ago

TLE from 2 days ago
0 COSMOS 1275 DEB
1 13462U 81053FJ  26171.14834889  .00000835  00000-0  81252-3 0  9992
2 13462  82.8135  43.7652 0162345 196.1163 324.9080 13.72716168187789
Epoch: 2026-06-20T03:33Z
TLE epoch observation values (Epoch: 2026-06-20T03:33:37.344Z)
Latitude
19.9019°
Longitude
-100.61013°
Altitude
895.079 km
Speed
7.455 km/s
True Right ascension
14h 44m 39s
True Declination
19° 47' 39"
Sunlit
Object was in daylight at epoch
Visualization orbit readout
Latitude
Unknown
Longitude
Unknown
Altitude
Unknown
Speed
Unknown
Apparent Right ascension
Unknown
Apparent Declination
Unknown
Sunlit
N/A
Visualization observer readout
Local Sidereal Time
19:08:26
Azimuth
Unknown
Elevation
Unknown
Doppler factor
Unknown
Orbital elements
Apogee altitude
1,106.561 km
Perigee altitude
867.422 km
Semi-major axis
7,365.129 km
Eccentricity
0.01623
Inclination
82.8135°
RAAN
43.7652°
Arg. of periapsis
196.1163°
True anomaly
323.82053°
Mean anomaly
324.908°
Eccentric anomaly
324.36608°
Mean motion
3.43378 °/min
Orbital period
104.84 mins
BSTAR
0.00081252
Loading maneuver chart data...
Computing Atmospheric mass density...

Documentation

Showing up to 5 results
|